[Iaude] MPEC J166: 2017 BD232 [a=44.84,e=0.05,i=2.4,H=9.32]
    mpec at cfa.harvard.edu 
    mpec at cfa.harvard.edu
       
    Wed May  8 11:43:06 EDT 2024
    
    
  
M.P.E.C. 2024-J166                                  Issued 2024 May 8, 15:41 UT
     The Minor Planet Electronic Circulars contain information on unusual
         minor planets, routine data on comets and natural satellites,
         and occasional editorial announcements.  They are published
    on behalf of Division F of the International Astronomical Union by the
          Minor Planet Center, Smithsonian Astrophysical Observatory,
                          Cambridge, MA 02138, U.S.A.
			  
             Prepared using the Tamkin Foundation Computer Network
                              MPC at CFA.HARVARD.EDU
            URL https://www.minorplanetcenter.net/    ISSN 1523-6714
                                   2017 BD232                                   
Additional Observations:
     K17BN2D 1C2016 04 02.38997212 21 00.78 -00 10 49.4                WEJ166T09
     K17BN2D 1C2016 04 02.46632212 21 00.44 -00 10 47.3                WEJ166T09
     K17BN2D 1C2016 04 02.51519612 21 00.23 -00 10 45.9                WEJ166T09
     K17BN2D 1C2016 06 05.31148812 17 46.73 +00 07 50.8                WEJ166T09
     K17BN2D 1C2016 06 05.33916012 17 46.71 +00 07 50.8                WEJ166T09
     K17BN2D 1C2017 02 02.63612712 29 34.05 -01 09 05.4                WEJ166T09
     K17BN2D 1C2019 04 03.44004312 35 42.46 -01 52 21.0                WEJ166T09
Observer details:
T09 Subaru Telescope, Maunakea.  Observer .  Measurer S. Deen.  8.3-m Subaru
    Telescope + CCD.
Orbital elements:
2017 BD232                                                                      
Epoch 2024 Mar. 31.0 TT = JDT 2460400.5                 Alexandersen            
M 337.78373              (2000.0)            P               Q                  
n   0.00328216     Peri.  162.39622     -0.76279414     +0.64570236             
a  44.8431904      Node    57.87343     -0.59812066     -0.68405888             
e   0.0530828      Incl.    2.35753     -0.24575756     -0.33931094             
P 300              H    9.32          G   0.15           U   6                  
Residuals in seconds of arc
160402 T09  0.0   0.0     170123 T09  0.2-  0.0     170202 T09  0.1+  0.2-
160402 T09  0.1-  0.0     170123 T09  0.1-  0.1+    170223 T09  0.2+  0.1+
160402 T09  0.1+  0.1+    170128 T09  0.1+  0.1+    170223 T09  0.3-  0.1+
160605 T09  0.1-  0.0     170128 T09  0.1-  0.1-    170223 T09  0.0   0.1-
160605 T09  0.1+  0.1-    170128 T09  0.2+  0.2+    190403 T09  0.0   0.0
170123 T09  0.1+  0.2-    170128 T09  0.0   0.2-
Ephemeris:
2017 BD232               a,e,i = 44.84, 0.05, 2                  q = 42.4628
Date    TT    R. A. (2000) Decl.     Delta      r    Elong.  Phase     V
2024 04 08    12 59 57.2 -04 38 24  41.6587 42.6585   176.8     0.1    25.6
...
2024 04 23    12 58 51.9 -04 31 51  41.6991 42.6577   162.2     0.4    25.7
...
2024 05 01    12 58 19.3 -04 28 38  41.7469 42.6572   154.3     0.6    25.7
...
2024 05 07    12 57 56.4 -04 26 25  41.7940 42.6569   148.4     0.7    25.7
2024 05 08    12 57 52.7 -04 26 04  41.8028 42.6568   147.4     0.7    25.7
2024 05 09    12 57 49.1 -04 25 43  41.8118 42.6568   146.5     0.7    25.7
...
2024 05 15    12 57 28.5 -04 23 46  41.8708 42.6565   140.6     0.9    25.7
...
2024 05 23    12 57 04.3 -04 21 32  41.9620 42.6560   132.8     1.0    25.7
...
2024 06 07    12 56 30.5 -04 18 37  42.1655 42.6552   118.2     1.2    25.8
M. P. C. Staff               (C) Copyright 2024 MPC           M.P.E.C. 2024-J166
    
    
More information about the Iaude
mailing list